Погода в Котике

Россия / Иркутская область     54°38′57″N   100°27′18″E
темп.,
°C
ветер,
м/с
пор.,
м/с
влажн.,
%
обл.,
%
осадки,
мм/ч
давл.,
гПа
погр.,
м
7 мая, пт
пт723:00+2с389345 0.1 1014356
02:00+1ссз2690100 0.1 1015141
05:00+1всв1290100 0.0 101679
08:00+1вюв2385100 0.0 1016263
11:00+4юв3469100 0.0 1015665
14:00+8юв4452100 0.0 10131010
17:00+9юв4548100 0.0 10111073
20:00+6ююв3665100 0.0 1011193
8 мая, сб
сб823:00+4ююв31075100 0.0 1011336
02:00+3ююв41089100 3.0 1010389
05:00+3ююз2596100 3.4 1012256
08:00+7сз5108493 3.4 1013877
11:00+10сз696471 0.9 10131538
14:00+12зсз7105594 1.6 10121984
17:00+12сз6105670 0.3 10121773
20:00+8сз4870100 0.5 1014448
9 мая, вс
вс923:00+5з2379100 0.0 101538
02:00+5ююз2381100 0.0 101363
05:00+5ююз3987100 0.1 1011240
08:00+6зюз2692100 2.6 1010537
11:00+8з4576100 0.6 1010959
14:00+8зсз5767100 1.1 10101310
17:00+8сз585796 0.3 10101736
20:00+6сз59648 0.7 10131081
10 мая, пн
пн1023:00+2з38828 0.0 1016312
02:00+1зюз3998100 0.1 1016405
05:00+1з3898100 0.8 1015368
08:00+1сз4795100 1.4 1017764
11:00+2сз2597100 0.2 1018369
14:00+3сз3796100 0.3 1019498
17:00+4сз3697100 0.3 1019564
20:00+4ссз149786 0.4 1019242
11 мая, вт
вт1123:00+3всв1189100 0.0 101815
02:00+2юв118511 0.0 101714
05:000в119216 0.0 101610
08:00+4в237689 0.0 1015232
11:00+7всв3469100 0.0 1013706
14:00+10в3556100 0.1 10111530
17:00+11св2358100 0.0 1011793
20:00+8ссв2472100 0.1 101291